Forside
METAR-TAF:

METAR-TAF

Lufthavne :

Rice Lake Regional Airport (Carl's Field)

Rice Lake, Wisconsin, USA

Breddekreds: 45-25-05N, længdekreds: 091-46-25W, højde: 337 m

Aktuelle vejr

Denne rapport blev lavet for 14 minutter siden, kl. 23:15 UTC
Vind stille
Temperatur 29°C
Fugtighed 58%
Tryk 1016 hPa
Sigt: 16.1 km
Overskyet i en højde af 5500 ft

METAR: KRPD 042315Z AUTO 00000KT 10SM OVC055 29/20 A3001 RMK AO2 T02930195

Tid: 18:29 (23:29 UTC)


TAF: fraværende

Vejrobservationer og prognoser fra mere end 4000 lufthavne (METAR og TAF).

De gule og røde prikker repræsenterer de meteorologiske stationer.

Flyt musen over at se navnet på stationen.

Så klik over at se vejr observationer og prognoser.

At skifte det kort: Klik på de grønne knapper med et sort kors for at zoome ind; på den grønne knap med en bindestreg for at zoome ud; eller på de grønne pile for tilstødende kort.


METAR-TAF: